Rogers, AR

6:50 AM CDT on July 26, 2017 (GMT -0500)
Rogers Municipal-Carter

Weather History for KROG - October, 2013

Change the Weather History Date:

Tuesday, October 8, 2013

  Actual Average Record
Temperature  
Mean Temperature 59 °F -  
Max Temperature 72 °F 69 °F 82 °F (2010)
Min Temperature 46 °F 49 °F 26 °F (2000)
Degree Days  
Heating Degree Days 6    
Growing Degree Days 9 (Base 50)    
Moisture  
Dew Point 47 °F    
Average Humidity 64    
Maximum Humidity 100    
Minimum Humidity 35    
Precipitation  
Precipitation 0.00 in - - ()
Sea Level Pressure  
Sea Level Pressure 30.12 in    
Wind  
Wind Speed 6 mph (ESE)    
Max Wind Speed 15 mph    
Max Gust Speed 18 mph    
Visibility 3 miles    
Events Fog , Rain    
Averages and records for this station are not official NWS values.
T = Trace of Precipitation, MM = Missing Value Source: NWS Daily Summary

Daily Weather History Graph

Daily Weather History Graph

Search for Another Location

Airport or City:

Trip Planner

Search our weather history database for the weather conditions in past years. The results will help you decide how hot, cold, wet, or windy it might be!

Date:

Astronomy

Oct. 08, 2013 Rise Set
Actual Time 7:17 AM CDT 6:49 PM CDT
Civil Twilight 6:51 AM CDT 7:15 PM CDT
Nautical Twilight 6:22 AM CDT 7:45 PM CDT
Astronomical Twilight 5:52 AM CDT 8:14 PM CDT
Moon 11:06 AM CDT (10/8) 9:33 PM CDT (10/8)
Length of Visible Light 12h 23m
Length of Day
11h 31m
Waxing Crescent, 16% of the Moon is Illuminated
Oct 8
Waxing Crescent
Oct 11
First Quarter
Oct 18
Full
Oct 26
Last Quarter
Nov 3
New

Hourly Weather History & Observations

Time (CDT) Temp. Windchill Dew Point Humidity Pressure Visibility Wind Dir Wind Speed Gust Speed Precip Events Conditions
12:39 AM 51.8 °F - 48.2 °F 88% 30.15 in 10.0 mi ESE 3.5 mph - N/A   Partly Cloudy
12:46 AM 51.8 °F - 50.0 °F 94% 30.15 in 1.8 mi ESE 3.5 mph - N/A   Mostly Cloudy
12:50 AM 51.8 °F - 51.8 °F 100% 30.15 in 0.8 mi ESE 3.5 mph - N/A   Mostly Cloudy
12:54 AM 51.8 °F - 51.8 °F 100% 30.15 in 0.5 mi ESE 3.5 mph - N/A Fog Fog
12:57 AM 52.0 °F - 51.1 °F 97% 30.14 in 0.5 mi SE 4.6 mph - N/A Fog Fog
1:04 AM 51.8 °F - 50.0 °F 94% 30.15 in 0.8 mi SE 4.6 mph - N/A   Overcast
1:07 AM 51.8 °F - 50.0 °F 94% 30.15 in 1.0 mi SE 5.8 mph - N/A   Overcast
1:14 AM 51.8 °F - 50.0 °F 94% 30.16 in 0.8 mi SE 3.5 mph - N/A   Overcast
1:24 AM 51.8 °F - 50.0 °F 94% 30.16 in 1.0 mi SE 4.6 mph - N/A   Overcast
1:27 AM 51.8 °F - 50.0 °F 94% 30.16 in 2.0 mi SE 5.8 mph - N/A   Overcast
1:32 AM 51.8 °F - 50.0 °F 94% 30.16 in 3.0 mi SE 4.6 mph - N/A   Mostly Cloudy
1:42 AM 51.8 °F - 48.2 °F 88% 30.16 in 7.0 mi SSE 3.5 mph - N/A   Scattered Clouds
1:57 AM 51.1 °F - 48.9 °F 92% 30.15 in 10.0 mi SE 3.5 mph - N/A   Clear
2:57 AM 51.1 °F - 48.0 °F 89% 30.15 in 9.0 mi Calm Calm - N/A   Clear
3:57 AM 48.9 °F - 46.9 °F 93% 30.15 in 10.0 mi Calm Calm - N/A   Clear
4:57 AM 46.9 °F - 46.0 °F 97% 30.15 in 9.0 mi East 3.5 mph - N/A   Clear
5:57 AM 48.9 °F - 46.9 °F 93% 30.16 in 10.0 mi ESE 4.6 mph - N/A   Clear
6:24 AM 46.4 °F 43.5 °F 46.4 °F 100% 30.17 in 2.5 mi ESE 5.8 mph - N/A   Clear
6:27 AM 48.2 °F - 46.4 °F 93% 30.17 in 3.0 mi ESE 5.8 mph - N/A   Clear
6:31 AM 48.2 °F - 46.4 °F 93% 30.17 in 5.0 mi ESE 5.8 mph - N/A   Partly Cloudy
6:37 AM 48.2 °F - 46.4 °F 93% 30.17 in 2.0 mi ESE 5.8 mph - N/A   Scattered Clouds
6:40 AM 48.2 °F - 46.4 °F 93% 30.17 in 1.8 mi East 5.8 mph - N/A   Scattered Clouds
6:46 AM 48.2 °F - 46.4 °F 93% 30.17 in 2.5 mi ESE 4.6 mph - N/A   Partly Cloudy
6:49 AM 48.2 °F - 46.4 °F 93% 30.17 in 3.0 mi ESE 4.6 mph - N/A   Partly Cloudy
6:57 AM 48.0 °F - 46.9 °F 96% 30.16 in 9.0 mi East 4.6 mph - N/A   Partly Cloudy
7:57 AM 50.0 °F - 48.0 °F 93% 30.17 in 10.0 mi East 4.6 mph - N/A   Clear
8:57 AM 55.0 °F - 50.0 °F 83% 30.17 in 10.0 mi ESE 4.6 mph - N/A   Clear
9:57 AM 60.1 °F - 48.0 °F 64% 30.17 in 10.0 mi ESE 10.4 mph 17.3 mph N/A   Clear
10:42 AM 62.6 °F - 44.6 °F 52% 30.18 in 1.0 mi ESE 12.7 mph - N/A   Haze
10:45 AM 62.6 °F - 44.6 °F 52% 30.18 in 0.5 mi ESE 11.5 mph - N/A   Haze
10:57 AM 62.6 °F - 44.6 °F 52% 30.18 in 10.0 mi SE 15.0 mph 18.4 mph N/A   Clear
10:59 AM 63.0 °F - 45.0 °F 52% 30.17 in 10.0 mi ESE 10.4 mph - N/A   Clear
11:02 AM 64.4 °F - 44.6 °F 49% 30.18 in 0.5 mi SE 12.7 mph - N/A   Haze
11:10 AM 64.4 °F - 44.6 °F 49% 30.18 in 10.0 mi ESE 12.7 mph - N/A   Clear
11:57 AM 66.0 °F - 44.1 °F 45% 30.16 in 10.0 mi ESE 15.0 mph - N/A   Clear
12:57 PM 69.1 °F - 42.1 °F 38% 30.14 in 9.0 mi SE 8.1 mph 18.4 mph N/A   Clear
1:57 PM 70.0 °F - 42.1 °F 36% 30.11 in 7.0 mi SE 12.7 mph - N/A   Clear
2:42 PM 71.6 °F - 42.8 °F 35% 30.12 in 2.0 mi SSE 11.5 mph - N/A   Haze
2:48 PM 71.6 °F - 42.8 °F 35% 30.12 in 1.8 mi SE 8.1 mph - N/A   Haze
2:57 PM 71.1 °F - 42.1 °F 35% 30.10 in 1.8 mi Variable 6.9 mph - N/A   Haze
3:00 PM 71.6 °F - 42.8 °F 35% 30.11 in 3.0 mi SSE 9.2 mph - N/A   Haze
3:11 PM 71.6 °F - 42.8 °F 35% 30.11 in 2.5 mi SSE 9.2 mph - N/A   Haze
3:20 PM 71.6 °F - 42.8 °F 35% 30.11 in 1.8 mi Variable 5.8 mph - N/A   Haze
3:23 PM 71.6 °F - 44.6 °F 38% 30.11 in 2.0 mi South 10.4 mph - N/A   Haze
3:29 PM 71.6 °F - 44.6 °F 38% 30.11 in 10.0 mi SSE 6.9 mph - N/A   Clear
3:47 PM 71.6 °F - 44.6 °F 38% 30.10 in 2.0 mi Variable 4.6 mph - N/A   Haze
3:57 PM 71.6 °F - 44.6 °F 38% 30.10 in 2.5 mi ESE 9.2 mph - N/A   Haze
3:59 PM 71.6 °F - 44.6 °F 38% 30.10 in 1.0 mi East 8.1 mph - N/A   Haze
4:02 PM 71.6 °F - 44.6 °F 38% 30.10 in 0.5 mi ESE 9.2 mph - N/A   Haze
4:11 PM 71.6 °F - 44.6 °F 38% 30.10 in 2.0 mi SE 6.9 mph - N/A   Haze
4:15 PM 71.6 °F - 44.6 °F 38% 30.10 in 4.0 mi SSE 8.1 mph - N/A   Haze
4:28 PM 71.6 °F - 44.6 °F 38% 30.10 in 1.2 mi ESE 5.8 mph - N/A   Haze
4:31 PM 71.6 °F - 44.6 °F 38% 30.09 in 1.0 mi SE 8.1 mph - N/A   Haze
4:38 PM 71.6 °F - 44.6 °F 38% 30.09 in 2.5 mi South 8.1 mph - N/A   Haze
4:41 PM 71.6 °F - 44.6 °F 38% 30.09 in 4.0 mi SE 5.8 mph - N/A   Haze
4:45 PM 71.6 °F - 46.4 °F 41% 30.09 in 0.8 mi East 6.9 mph - N/A   Haze
4:48 PM 71.6 °F - 46.4 °F 41% 30.09 in 0.5 mi ESE 6.9 mph - N/A   Haze
4:57 PM 72.0 °F - 46.0 °F 40% 30.07 in 0.5 mi SE 8.1 mph - N/A   Haze
5:00 PM 71.6 °F - 46.4 °F 41% 30.09 in 0.8 mi ESE 5.8 mph - N/A   Haze
5:07 PM 71.6 °F - 46.4 °F 41% 30.09 in 1.0 mi SE 6.9 mph - N/A   Haze
5:09 PM 71.6 °F - 46.4 °F 41% 30.09 in 0.5 mi East 5.8 mph - N/A   Haze
5:14 PM 71.6 °F - 46.4 °F 41% 30.09 in 0.8 mi SSE 9.2 mph - N/A   Haze
5:17 PM 71.6 °F - 44.6 °F 38% 30.09 in 1.0 mi SSE 6.9 mph - N/A   Haze
5:19 PM 71.6 °F - 44.6 °F 38% 30.09 in 7.0 mi South 6.9 mph - N/A   Clear
5:33 PM 71.6 °F - 46.4 °F 41% 30.09 in 0.5 mi East 5.8 mph - N/A   Haze
5:52 PM 71.6 °F - 46.4 °F 41% 30.08 in 1.0 mi ESE 5.8 mph - N/A   Haze
5:57 PM 70.0 °F - 48.0 °F 46% 30.07 in 0.8 mi ESE 3.5 mph - N/A   Haze
6:02 PM 69.8 °F - 48.2 °F 46% 30.08 in 0.5 mi ESE 4.6 mph - N/A   Haze
6:18 PM 69.8 °F - 50.0 °F 49% 30.08 in 1.0 mi ESE 3.5 mph - N/A   Haze
6:23 PM 69.8 °F - 48.2 °F 46% 30.09 in 0.5 mi East 4.6 mph - N/A   Haze
6:30 PM 69.8 °F - 48.2 °F 46% 30.09 in 0.2 mi East 3.5 mph - N/A   Haze
6:57 PM 66.9 °F - 51.1 °F 57% 30.07 in 0.2 mi East 4.6 mph - N/A   Haze
7:14 PM 64.4 °F - 51.8 °F 64% 30.09 in 0.5 mi ESE 4.6 mph - N/A   Haze
7:18 PM 64.4 °F - 51.8 °F 64% 30.09 in 1.0 mi ESE 5.8 mph - N/A   Haze
7:21 PM 64.4 °F - 50.0 °F 59% 30.09 in 1.8 mi ESE 4.6 mph - N/A   Haze
7:26 PM 64.4 °F - 51.8 °F 64% 30.09 in 2.0 mi South 3.5 mph - N/A   Haze
7:30 PM 62.6 °F - 51.8 °F 68% 30.09 in 4.0 mi South 4.6 mph - N/A   Haze
7:50 PM 62.6 °F - 51.8 °F 68% 30.10 in 1.8 mi ESE 4.6 mph - N/A   Haze
7:57 PM 62.6 °F - 51.8 °F 68% 30.10 in 1.0 mi ESE 4.6 mph - N/A   Haze
7:59 PM 62.1 °F - 51.1 °F 67% 30.09 in 1.0 mi East 5.8 mph - N/A   Haze
8:02 PM 62.6 °F - 51.8 °F 68% 30.10 in 0.8 mi East 5.8 mph - N/A   Haze
8:06 PM 62.6 °F - 51.8 °F 68% 30.10 in 0.5 mi East 5.8 mph - N/A   Haze
8:36 PM 60.8 °F - 51.8 °F 72% 30.09 in 0.8 mi East 4.6 mph - N/A   Haze
8:48 PM 60.8 °F - 51.8 °F 72% 30.09 in 1.0 mi ESE 6.9 mph - 0.00 in Rain Light Rain
8:53 PM 60.8 °F - 51.8 °F 72% 30.10 in 1.2 mi ESE 6.9 mph - 0.00 in Rain Light Rain
8:57 PM 60.1 °F - 52.0 °F 75% 30.09 in 1.5 mi ESE 6.9 mph - 0.00 in Rain Light Rain
9:27 PM 59.0 °F - 51.8 °F 77% 30.10 in 1.0 mi ESE 5.8 mph - 0.00 in   Haze
9:36 PM 59.0 °F - 50.0 °F 72% 30.10 in 1.5 mi ESE 6.9 mph - 0.00 in   Haze
9:57 PM 57.9 °F - 48.9 °F 72% 30.09 in 1.2 mi ESE 6.9 mph - 0.00 in   Haze
10:36 PM 57.2 °F - 48.2 °F 72% 30.10 in 1.0 mi ESE 4.6 mph - N/A   Haze
10:39 PM 57.2 °F - 48.2 °F 72% 30.10 in 0.8 mi ESE 6.9 mph - N/A   Haze
10:42 PM 57.2 °F - 48.2 °F 72% 30.10 in 0.5 mi ESE 6.9 mph - N/A   Haze
10:52 PM 57.2 °F - 48.2 °F 72% 30.10 in 0.8 mi ESE 6.9 mph - N/A   Haze
10:57 PM 57.2 °F - 48.2 °F 72% 30.10 in 1.0 mi ESE 5.8 mph - N/A   Haze
10:59 PM 57.0 °F - 48.0 °F 72% 30.09 in 1.0 mi ESE 6.9 mph - N/A   Haze
11:16 PM 55.4 °F - 48.2 °F 77% 30.10 in 1.2 mi ESE 8.1 mph - N/A   Haze
11:30 PM 57.2 °F - 46.4 °F 67% 30.10 in 2.0 mi SE 8.1 mph - N/A   Haze
11:43 PM 57.2 °F - 46.4 °F 67% 30.10 in 3.0 mi SE 10.4 mph - N/A   Haze
11:57 PM 57.0 °F - 46.9 °F 69% 30.08 in 4.0 mi SE 9.2 mph - N/A   Haze